Tracking 17886 objects as of 9-December-2016
HD Live streaming from Space Station
objects crossing your sky now

NAVSTAR 33 (USA 92)

Track NAVSTAR 33 (USA 92) now!
NAVSTAR 33 (USA 92) is classified as:


NORAD ID: 22700
Int'l Code: 1993-042A
Perigee: 21,193.8 km
Apogee: 21,246.2 km
Inclination: 55.7 °
Period: 760.2 minutes
Semi major axis: 27591 km
RCS: 3.4011 m2 (large)
Launch date: June 26, 1993
Source: United States (US)
Launch site: AIR FORCE EASTERN TEST RANGE (AFETR)
PRN:
Your satellite tracking list
Your tracking list is empty





NASA's NSSDC Master Catalog

Two Line Element Set (TLE):
1 22700U 93042A   16344.32596181 -.00000045  00000-0  00000+0 0  9991
2 22700  55.7131 290.6500 0009490 309.7538 222.4566  1.89431152171295
Source of the keplerian elements: AFSPC